When you browse on this site, cookies collect data to enhance your experience and personalize the content and advertising you see.
Visit our Privacy Policy to learn more. By continuing to use the site, you agree to this use of cookies and data.
  • In United Kingdom
  • List of Countries
  • For 7 days
  • Water Temperature
  • Satellite Maps
  • Weather Map
  • Weather Widgets
  • user-avatar
    Login

    Hourly Weather Salzburg

    Today, 20 April, Saturday

    Time Temperature Precipitation Wind Pressure Humidity
    00:00 +1°C° 0 mm 2 mps 632 mmHg 73%
    01:00 +1°C° 0 mm 2 mps 632 mmHg 72%
    02:00 +1°C° 0 mm 2 mps 631 mmHg 73%
    03:00 -1°C° 0 mm 2 mps 631 mmHg 74%
    04:00 -1°C° 0 mm 2 mps 631 mmHg 75%
    05:00 +1°C° 0 mm 2 mps 631 mmHg 72%
    06:00 +2°C° 0 mm 2 mps 632 mmHg 69%
    07:00 +3°C° 0 mm 2 mps 632 mmHg 66%
    08:00 +7°C° 0 mm 1 mps 633 mmHg 58%
    09:00 +10°C° 0 mm 1 mps 634 mmHg 49%
    10:00 +13°C° 0 mm 1 mps 635 mmHg 41%
    11:00 +14°C° 0 mm 1 mps 635 mmHg 38%
    12:00 +15°C° 0 mm 1 mps 635 mmHg 35%
    13:00 +16°C° 0 mm 1 mps 635 mmHg 33%
    14:00 +16°C° 0 mm 1 mps 635 mmHg 33%
    15:00 +15°C° 0 mm 1 mps 634 mmHg 34%
    16:00 +15°C° 0 mm 1 mps 634 mmHg 35%
    17:00 +12°C° 0 mm 1 mps 633 mmHg 46%
    18:00 +8°C° 0 mm 0 mps 632 mmHg 57%
    19:00 +5°C° 0 mm 0 mps 630 mmHg 69%
    20:00 +5°C° 0 mm 1 mps 630 mmHg 69%
    21:00 +4°C° 0 mm 1 mps 630 mmHg 68%
    22:00 +2°C° 0 mm 2 mps 630 mmHg 68%
    23:00 +2°C° 0 mm 2 mps 630 mmHg 68%

    Tomorrow, 21 April, Sunday

    Time Temperature Precipitation Wind Pressure Humidity
    00:00 +2°C° 0 mm 2 mps 630 mmHg 69%
    01:00 +1°C° 0 mm 2 mps 630 mmHg 69%
    02:00 +1°C° 0 mm 2 mps 629 mmHg 70%
    03:00 +1°C° 0 mm 2 mps 629 mmHg 71%
    04:00 +1°C° 0 mm 2 mps 629 mmHg 72%
    05:00 +3°C° 0 mm 1 mps 629 mmHg 68%
    06:00 +4°C° 0 mm 1 mps 629 mmHg 65%
    07:00 +6°C° 0 mm 1 mps 630 mmHg 61%
    08:00 +9°C° 0 mm 1 mps 630 mmHg 53%
    09:00 +11°C° 0 mm 1 mps 631 mmHg 45%
    10:00 +14°C° 0 mm 1 mps 632 mmHg 36%
    11:00 +15°C° 0 mm 1 mps 632 mmHg 35%
    12:00 +16°C° 0 mm 1 mps 632 mmHg 34%
    13:00 +18°C° 0 mm 1 mps 631 mmHg 32%
    14:00 +16°C° 0 mm 1 mps 631 mmHg 34%
    15:00 +15°C° 0 mm 1 mps 630 mmHg 36%
    16:00 +15°C° 0 mm 1 mps 630 mmHg 38%
    17:00 +12°C° 0 mm 1 mps 628 mmHg 50%
    18:00 +10°C° 0 mm 1 mps 627 mmHg 62%
    19:00 +7°C° 0 mm 1 mps 626 mmHg 73%
    20:00 +6°C° 0 mm 1 mps 626 mmHg 77%
    21:00 +4°C° 0 mm 2 mps 626 mmHg 81%
    22:00 +4°C° 0 mm 2 mps 626 mmHg 85%
    23:00 +3°C° 0 mm 2 mps 626 mmHg 86%

    Day after tomorrow, 22 April, Monday

    Time Temperature Precipitation Wind Pressure Humidity
    00:00 +3°C° 0 mm 2 mps 626 mmHg 88%
    01:00 +3°C° 0 mm 2 mps 625 mmHg 90%
    02:00 +3°C° 0 mm 2 mps 625 mmHg 90%
    03:00 +2°C° 0 mm 2 mps 625 mmHg 90%
    04:00 +2°C° 0 mm 2 mps 624 mmHg 91%
    05:00 +3°C° 0 mm 2 mps 624 mmHg 84%
    06:00 +4°C° 0 mm 2 mps 624 mmHg 78%
    07:00 +5°C° 0 mm 2 mps 624 mmHg 71%
    08:00 +8°C° 0 mm 2 mps 625 mmHg 59%
    09:00 +12°C° 0 mm 1 mps 625 mmHg 47%
    10:00 +15°C° 0 mm 1 mps 626 mmHg 35%
    11:00 +16°C° 0 mm 1 mps 626 mmHg 33%
    12:00 +18°C° 0 mm 1 mps 625 mmHg 31%
    13:00 +18°C° 0 mm 2 mps 625 mmHg 28%
    14:00 +17°C° 0 mm 2 mps 624 mmHg 31%
    15:00 +16°C° 0 mm 2 mps 624 mmHg 33%
    16:00 +16°C° 0 mm 2 mps 623 mmHg 36%
    17:00 +13°C° 0 mm 2 mps 622 mmHg 48%
    18:00 +9°C° 0 mm 2 mps 621 mmHg 60%
    19:00 +7°C° 0 mm 2 mps 619 mmHg 72%
    20:00 +6°C° 0 mm 2 mps 619 mmHg 74%
    21:00 +5°C° 0 mm 2 mps 619 mmHg 75%
    22:00 +3°C° 0 mm 3 mps 619 mmHg 77%
    23:00 +3°C° 0 mm 3 mps 618 mmHg 77%

    23 April, Tuesday

    Time Temperature Precipitation Wind Pressure Humidity
    00:00 +2°C° 0 mm 3 mps 617 mmHg 77%
    01:00 +2°C° 0 mm 3 mps 617 mmHg 77%
    02:00 +2°C° 0 mm 3 mps 617 mmHg 78%
    03:00 +2°C° 0 mm 3 mps 616 mmHg 78%
    04:00 +2°C° 0 mm 3 mps 616 mmHg 79%
    05:00 +2°C° 0.1 mm 3 mps 616 mmHg 77%
    06:00 +3°C° 0.1 mm 3 mps 616 mmHg 75%
    07:00 +4°C° 0.1 mm 3 mps 616 mmHg 74%
    08:00 +7°C° 0 mm 3 mps 617 mmHg 69%
    09:00 +8°C° 0 mm 3 mps 617 mmHg 64%
    10:00 +10°C° 0 mm 3 mps 618 mmHg 59%
    11:00 +11°C° 0.1 mm 3 mps 618 mmHg 55%
    12:00 +12°C° 0.1 mm 3 mps 619 mmHg 51%
    13:00 +13°C° 0.1 mm 3 mps 619 mmHg 48%
    14:00 +13°C° 0.2 mm 3 mps 619 mmHg 50%
    15:00 +12°C° 0.2 mm 3 mps 618 mmHg 52%
    16:00 +12°C° 0.2 mm 3 mps 618 mmHg 54%
    17:00 +10°C° 0 mm 3 mps 617 mmHg 61%
    18:00 +8°C° 0 mm 3 mps 617 mmHg 67%
    19:00 +5°C° 0 mm 3 mps 617 mmHg 74%
    20:00 +5°C° 0 mm 3 mps 617 mmHg 77%
    21:00 +4°C° 0 mm 3 mps 617 mmHg 79%
    22:00 +3°C° 0 mm 3 mps 617 mmHg 82%
    23:00 +3°C° 0 mm 3 mps 617 mmHg 82%

    24 April, Wednesday

    Time Temperature Precipitation Wind Pressure Humidity
    00:00 +3°C° 0 mm 3 mps 618 mmHg 83%
    01:00 +3°C° 0 mm 3 mps 618 mmHg 83%
    02:00 +3°C° 0 mm 3 mps 618 mmHg 84%
    03:00 +3°C° 0 mm 3 mps 619 mmHg 84%
    04:00 +3°C° 0 mm 3 mps 619 mmHg 84%
    05:00 +5°C° 0 mm 2 mps 619 mmHg 81%
    06:00 +6°C° 0 mm 2 mps 620 mmHg 78%
    07:00 +7°C° 0 mm 2 mps 621 mmHg 75%
    08:00 +9°C° 0 mm 2 mps 622 mmHg 67%
    09:00 +12°C° 0 mm 2 mps 623 mmHg 59%
    10:00 +14°C° 0 mm 2 mps 624 mmHg 51%
    11:00 +15°C° 0.3 mm 2 mps 624 mmHg 50%
    12:00 +14°C° 0.3 mm 3 mps 624 mmHg 49%
    13:00 +16°C° 0.3 mm 3 mps 624 mmHg 47%
    14:00 +16°C° 0 mm 3 mps 624 mmHg 47%
    15:00 +14°C° 0 mm 3 mps 624 mmHg 47%
    16:00 +14°C° 0 mm 3 mps 624 mmHg 47%
    17:00 +12°C° 0 mm 3 mps 623 mmHg 55%
    18:00 +10°C° 0 mm 3 mps 623 mmHg 64%
    19:00 +8°C° 0 mm 3 mps 622 mmHg 72%
    20:00 +7°C° 0 mm 3 mps 622 mmHg 75%
    21:00 +5°C° 0 mm 3 mps 623 mmHg 78%
    22:00 +4°C° 0 mm 3 mps 623 mmHg 81%
    23:00 +4°C° 0 mm 3 mps 623 mmHg 81%

    25 April, Thursday

    Time Temperature Precipitation Wind Pressure Humidity
    00:00 +4°C° 0 mm 3 mps 623 mmHg 81%
    01:00 +4°C° 0 mm 3 mps 623 mmHg 81%
    02:00 +4°C° 0 mm 3 mps 623 mmHg 81%
    03:00 +4°C° 0 mm 3 mps 623 mmHg 81%
    04:00 +4°C° 0 mm 3 mps 623 mmHg 81%
    05:00 +5°C° 0 mm 3 mps 624 mmHg 78%
    06:00 +7°C° 0 mm 3 mps 624 mmHg 75%
    07:00 +8°C° 0 mm 3 mps 624 mmHg 73%
    08:00 +9°C° 0 mm 3 mps 625 mmHg 66%
    09:00 +11°C° 0 mm 3 mps 625 mmHg 60%
    10:00 +13°C° 0 mm 3 mps 626 mmHg 53%
    11:00 +13°C° 0 mm 3 mps 626 mmHg 50%
    12:00 +14°C° 0 mm 3 mps 626 mmHg 47%
    13:00 +15°C° 0 mm 4 mps 626 mmHg 45%
    14:00 +15°C° 0 mm 4 mps 625 mmHg 45%
    15:00 +14°C° 0 mm 3 mps 625 mmHg 46%
    16:00 +14°C° 0 mm 3 mps 624 mmHg 47%
    17:00 +12°C° 0 mm 3 mps 623 mmHg 55%
    18:00 +10°C° 0 mm 3 mps 623 mmHg 62%
    19:00 +8°C° 0 mm 3 mps 622 mmHg 70%
    20:00 +8°C° 0.2 mm 3 mps 622 mmHg 73%
    21:00 +7°C° 0.2 mm 3 mps 622 mmHg 76%
    22:00 +7°C° 0.2 mm 3 mps 621 mmHg 80%
    23:00 +5°C° 0 mm 3 mps 621 mmHg 81%
    Show more